Location: Beetenbrück
(52.8113°N, 9.5946°E)
Time: 21:21:43
(UTC+00:00)

Cosmos 1269 Rocket - Pass Details

Date: 14 April 2026
Orbit: 768 x 775 km, 74.1° (Epoch: 12 May)

Event Time Altitude Azimuth Distance (km) Brightness Sun altitude
Rises 22:24:02 0° 331° (NNW) 3,256 8.5 -26.3°
Reaches altitude 10° 22:26:28 10° 328° (NNW) 2,326 7.4 -26.4°
Enters shadow 22:31:32 55° 255° (WSW) 928 4.3 -26.6°
